Flag for Poland Weather past 2 weeks in Jastrzębie Zdrój, Poland

Now
52 °F

Drizzle. Overcast.


Feels Like: 50 °F
Forecast: 52 / 61 °F
Wind: 7 mph from Northeast

Location: Ostrava / Mosnov

Current Time: May 23, 2015 at 9:58:19 AM

Latest Report: May 23, 2015 at 9:00 AM


Visibility: 6 mi

Pressure: 30.05 "Hg

Humidity: 88%

Dew point: 49 °F

Location of Jastrzębie ZdrójLocation

Historic Weather in Jastrzębie Zdrój — Graph

°F

Jastrzębie Zdrój temperature yesterday

Maximum temperature yesterday: 60 °F (at 3:00 PM)
Minimum temperature yesterday: 51 °F (at 7:00 AM)
Average temperature yesterday: 55 °F

Past Weeks' High & Low Weather Summary

 TemperatureHumidityPressure
High75 °F (May 19, 12:00 PM)99% (May 20, 7:00 AM)30.43 "Hg (May 20, 7:00 AM)
Low38 °F (May 15, 6:00 AM)34% (May 12, 3:00 PM)29.74 "Hg (May 19, 6:00 AM)
Average56 °F70%30.07 "Hg
* Reported May 8 8:14 AM — May 23 8:00 AM, Jastrzębie Zdrój, Weather by CustomWeather, © 2015

Note: Actual official high and low records may vary slightly from our data, if they occured in-between our weather recording intervals... More about our weather records

Advertising

Jastrzębie Zdrój weather history for previous 24 hours

 ConditionsComfort  
Time TempWeatherWind HumidityBarometerVisibility
8:00 AM
Sat, May 23
53 °FOvercast.7 mph85%30.04 "Hg7 mi
7:00 AM52 °FOvercast.7 mph87%30.05 "Hg6 mi
6:00 AM52 °FOvercast.7 mph87%30.05 "Hg9 mi
5:00 AM52 °FOvercast.7 mph87%30.06 "Hg9 mi
4:00 AM53 °FOvercast.7 mph83%30.07 "Hg12 mi
3:00 AM53 °FOvercast.7 mph82%30.08 "Hg12 mi
2:00 AM53 °FLight rain. Overcast.7 mph81%30.09 "Hg12 mi
1:00 AM54 °FOvercast.7 mph79%30.11 "Hg12 mi
12:00 AM54 °FOvercast.7 mph76%30.12 "Hg12 mi
10:00 PM
Fri, May 22
55 °FOvercast.7 mph72%30.15 "Hg12 mi
9:00 PM55 °FOvercast.6 mph74%30.15 "Hg16 mi
8:00 PM54 °FOvercast.5 mph77%30.16 "Hg16 mi
7:00 PM56 °FLight rain. Overcast.7 mph66%30.16 "Hg16 mi
6:00 PM57 °FOvercast.6 mph63%30.16 "Hg16 mi
5:00 PM58 °FOvercast.8 mph63%30.16 "Hg16 mi
4:00 PM59 °FOvercast.8 mph60%30.18 "Hg16 mi
3:00 PM60 °FOvercast.7 mph58%30.19 "Hg16 mi
2:00 PM59 °FOvercast.8 mph60%30.20 "Hg16 mi
1:00 PM57 °FOvercast.6 mph66%30.22 "Hg12 mi
12:00 PM57 °FOvercast.8 mph63%30.23 "Hg11 mi
11:00 AM58 °FOvercast.7 mph67%30.23 "Hg9 mi
10:00 AM56 °FFog.8 mph72%30.24 "Hg6 mi
9:00 AM54 °FFog.5 mph88%30.24 "Hg4 mi
Weather by CustomWeather, © 2015

See weather overviewHow to use our weather pages